Overview Statistics Trail Chart Weather Telemetry Raw packets
 

This is the latest recevied weather packets stored in our database for station/object SQ4IXR-4. If no packets are shown the sender has not sent any weather packets the latest 10 day(s).

<< 17 18 19 20 21 22 23 >>
Time Temp. Humidity Pressure Rain* Wind** Luminosity Snow
1788275077 20° C 79% 1017.7 hPa - - - -
1788274254 20.56° C 74% 1017.5 hPa - - - -
1788273432 20° C 70% 1017.7 hPa - - - -
1788272613 21.67° C 62% 1017.5 hPa - - - -
1788271788 23.89° C 57% 1017.3 hPa - - - -
1788270962 22.78° C 65% 1017.4 hPa - - - -
1788270139 21.67° C 66% 1017.6 hPa - - - -
1788269316 22.22° C 61% 1017.5 hPa - - - -
1788268492 22.78° C 62% 1017.4 hPa - - - -
1788267668 22.78° C 62% 1017.4 hPa - - - -
1788266848 23.89° C 55% 1016.9 hPa - - - -
1788266019 22.78° C 65% 1016.5 hPa - - - -
1788265190 20.56° C 83% 1016.7 hPa - - - -
1788264376 22.22° C 58% 1016.5 hPa - - - -
1788263557 26.11° C 42% 1015.8 hPa - - - -
1788262734 26.67° C 41% 1015.9 hPa - - - -
1788261913 27.22° C 40% 1015.8 hPa - - - -
1788261091 28.89° C 39% 1015.6 hPa - - - -
1788260266 26.67° C 42% 1015.7 hPa - - - -
1788259438 26.67° C 42% 1015.7 hPa - - - -
1788258616 27.22° C 42% 1015.6 hPa - - - -
1788257792 27.22° C 41% 1015.6 hPa - - - -
1788256969 26.67° C 43% 1015.6 hPa - - - -
1788256151 28.89° C 42% 1015.4 hPa - - - -
1788255322 29.44° C 43% 1015.4 hPa - - - -

* Rain since midnight (hover to see other rain measurements)
** Current wind speed in m/s (hover to see current wind gust speed)